This demonstration page uses our WeatherBlox Daily Observations layout. Learn more.

Left ArrowRight Arrow

38.20091, -84.87328

Hourly Observations for September 20, 2021

Temp ( °F °C ) Dew Point ( °F °C ) Humidity (%) Winds ( mph kmh ) Pressure ( in mb ) Visibility ( mi km ) Precip ( " mm )
12:53 am 00:53 Cloudy 72 22.2 71 21.7 97 97 ENE 3 6 30.05 1018 10 16 0.00 0.00
1:53 am 01:53 Mostly Cloudy 72 22.2 70 21.1 94 94 E 6 9 30.04 1017 10 16 0.00 0.00
2:53 am 02:53 Clear 72 22.2 70 21.1 94 94 ESE 5 7 30.04 1017 10 16 0.01 0.25
3:53 am 03:53 Partly Cloudy 72 22.2 69 20.6 91 91 SE 8 13 30.04 1017 10 16 0.00 0.00
4:53 am 04:53 Cloudy 71 21.7 68 20 90 90 SE 6 9 30.04 1017 10 16 0.00 0.00
5:53 am 05:53 Cloudy 70 21.1 68 20 93 93 Calm 30.03 1017 10 16 0.00 0.00
6:53 am 06:53 Cloudy 70 21.1 68 20 93 93 SSE 5 7 30.04 1017 10 16 0.00 0.00
7:53 am 07:53 Cloudy 71 21.7 68 20 90 90 Calm 30.05 1018 10 16 0.00 0.00
8:53 am 08:53 Cloudy 71 21.7 69 20.6 94 94 SSE 5 7 30.06 1018 10 16 0.00 0.00
9:53 am 09:53 Cloudy 72 22.2 69 20.6 91 91 SSE 7 11 30.07 1018 10 16 0.01 0.25
10:53 am 10:53 Mostly Cloudy 73 22.8 70 21.1 90 90 S 9 15 30.09 1019 10 16 0.00 0.00
11:53 am 11:53 Cloudy with Rain 72 22.2 70 21.1 94 94 S 3 6 30.09 1019 3 5 0.11 2.79
12:38 pm 12:38 Cloudy with Light Rain 72 22.2 70 21.1 94 94 Calm 30.08 1019 5 8 0.07 1.78
12:53 pm 12:53 Cloudy with Light Rain 72 22.2 70 21.1 94 94 SW 3 6 30.09 1019 5 8 0.09 2.29
1:16 pm 13:16 Cloudy with Light Rain 73 22.8 71 21.7 94 94 Calm 30.08 1019 4 6 0.01 0.25
1:23 pm 13:23 Cloudy with Light Rain 73 22.8 70 21.1 90 90 Calm 30.07 1018 6 10 0.01 0.25
1:53 pm 13:53 Cloudy 74 23.3 71 21.7 91 91 ESE 5 7 30.08 1019 10 16 0.01 0.25
2:53 pm 14:53 Cloudy 75 23.9 72 22.2 90 90 SE 8 13 30.06 1018 10 16 0.01 0.25
3:36 pm 15:36 Cloudy with Rain 71 21.7 69 20.6 94 94 S 18 30 30.07 1018 2 3 0.07 1.78
3:50 pm 15:50 Cloudy with Rain 70 21 68 20 94 94 S 16 26 30.07 1018 3 5 0.13 3.30
3:53 pm 15:53 Cloudy with Rain 70 21.1 68 20 93 93 S 12 19 30.07 1018 3 5 0.14 3.56
3:59 pm 15:59 Cloudy with Heavy Rain 70 21.1 68 20 93 93 S 12 19 30.07 1018 2 3 0.05 1.27
4:07 pm 16:07 Cloudy with Rain 70 21.1 68 20 93 93 S 8 13 30.07 1018 3 5 0.06 1.52
4:24 pm 16:24 Cloudy with Light Rain 71 21.7 69 20.6 94 94 SSW 8 13 30.07 1018 5 8 0.09 2.29
4:37 pm 16:37 Cloudy with Light Rain 71 21.7 69 20.6 94 94 S 8 13 30.07 1018 9 14 0.10 2.54
4:44 pm 16:44 Cloudy with Light Rain 71 21.7 69 20.6 94 94 S 7 11 30.07 1018 10 16 0.10 2.54
4:53 pm 16:53 Cloudy with Light Rain 71 21.7 69 20.6 94 94 S 8 13 30.07 1018 10 16 0.10 2.54
5:53 pm 17:53 Mostly Cloudy with Light Rain 70 21.1 68 20 93 93 SSE 5 7 30.06 1018 10 16 0.01 0.25
6:53 pm 18:53 Mostly Cloudy 70 21.1 68 20 93 93 E 6 9 30.05 1018 10 16 0.01 0.25
7:53 pm 19:53 Cloudy 70 21.1 68 20 93 93 ESE 5 7 30.04 1017 10 16 0.00 0.00
8:53 pm 20:53 Mostly Clear 69 20.6 67 19.4 93 93 ESE 3 6 30.05 1018 10 16 0.00 0.00
9:53 pm 21:53 Mostly Cloudy 69 20.6 67 19.4 93 93 SE 5 7 30.05 1018 10 16 0.00 0.00
10:53 pm 22:53 Mostly Cloudy 69 20.6 67 19.4 93 93 SE 5 7 30.04 1017 10 16 0.00 0.00
11:53 pm 23:53 Clear 68 20 66 18.9 93 93 Calm 30.03 1017 10 16 0.00 0.00

Powered by AerisWeather